sat.trackr.live / text

‹ back to catalog

YAOGAN-39 02B

NORAD 57889 · 2023-145D

PAYLOAD ACTIVE UNKNOWN

§ Identity

Operator
Country
PRC
Launch date
2023-09-17
Launch site
XICLF
Launch vehicle
Mass (kg)
RCS (m²)

External: N2YO · Heavens-Above · Gunter

§ Orbital elements

Epoch: 2026-09-22T11:40:35.774688Z

Period
94.92 min
Inclination
34.9924°
Eccentricity
0.0009177
Mean motion
15.17083578 rev/d
Perigee alt
508.3 km
Apogee alt
521.0 km
Semi-major
6,892.8 km
B*
1.9413e-4
RAAN
337.8421°
Arg perigee
255.4852°
Mean anomaly
104.4843°
Rev number
16,767

§ Raw data

YAOGAN-39 02B1 57889U 23145D   26265.48652517  .00003906  00000+0  19413-3 0  99992 57889  34.9924 337.8421 0009177 255.4852 104.4843 15.17083578167679

JSON: /api/v1/satellites/57889 · /tle

For live sub-satellite position, see the globe view (requires WebGL).

§ Visibility from observer

Set your observer location to see the next 7 days of passes ≥ 10°. The values pass through the URL so the page stays shareable.

No JS? Fill the form by hand. The geolocation button needs JavaScript.